Satellite: MET-3/5
Catalog number: 21655
Epoch time:      10056.35396909
Element set:     745
Inclination:      082.5561 deg
RA of node:       027.6406 deg
Eccentricity:    0.0012235
Arg of perigee:   270.0346 deg
Mean anomaly:     089.9466 deg
Mean motion:   13.17020603 rev/day
Decay rate:        5.1e-07 rev/day^2
Epoch rev:           89095
Checksum:              299

Satellite: MET-2/21
Catalog number: 22782
Epoch time:      10056.71161767
Element set:     706
Inclination:      082.5512 deg
RA of node:       340.8860 deg
Eccentricity:    0.0022546
Arg of perigee:   359.7781 deg
Mean anomaly:     000.3369 deg
Mean motion:   13.83644115 rev/day
Decay rate:        8.3e-07 rev/day^2
Epoch rev:           83266
Checksum:              302

Satellite: OKEAN-4
Catalog number: 23317
Epoch time:      10056.77460036
Element set:     163
Inclination:      082.5385 deg
RA of node:       097.8535 deg
Eccentricity:    0.0020366
Arg of perigee:   247.9481 deg
Mean anomaly:     111.9562 deg
Mean motion:   14.82773223 rev/day
Decay rate:       3.28e-06 rev/day^2
Epoch rev:           82994
Checksum:              314

Satellite: NOAA-14
Catalog number: 23455
Epoch time:      10056.39364587
Element set:     960
Inclination:      098.8849 deg
RA of node:       137.8917 deg
Eccentricity:    0.0009153
Arg of perigee:   188.3487 deg
Mean anomaly:     171.7548 deg
Mean motion:   14.13779631 rev/day
Decay rate:        1.1e-07 rev/day^2
Epoch rev:           78170
Checksum:              346

Satellite: NOAA-15
Catalog number: 25338
Epoch time:      10056.49756599
Element set:     280
Inclination:      098.6105 deg
RA of node:       045.4746 deg
Eccentricity:    0.0011443
Arg of perigee:   043.5341 deg
Mean anomaly:     316.6748 deg
Mean motion:   14.24809503 rev/day
Decay rate:       1.73e-06 rev/day^2
Epoch rev:           61284
Checksum:              308

Satellite: RESURS
Catalog number: 25394
Epoch time:      10055.65864147
Element set:     439
Inclination:      098.3150 deg
RA of node:       079.8199 deg
Eccentricity:    0.0001354
Arg of perigee:   152.3845 deg
Mean anomaly:     207.7413 deg
Mean motion:   14.24192966 rev/day
Decay rate:       -3.7e-07 rev/day^2
Epoch rev:           60433
Checksum:              306

Satellite: FENGYUN1
Catalog number: 25730
Epoch time:      10056.39878191
Element set:     981
Inclination:      098.7772 deg
RA of node:       024.3030 deg
Eccentricity:    0.0023082
Arg of perigee:   221.1484 deg
Mean anomaly:     138.7989 deg
Mean motion:   14.08170688 rev/day
Decay rate:        8.3e-07 rev/day^2
Epoch rev:           55595
Checksum:              321

Satellite: OKEAN-0
Catalog number: 25860
Epoch time:      10055.90463829
Element set:     922
Inclination:      097.8199 deg
RA of node:       032.5006 deg
Eccentricity:    0.0001861
Arg of perigee:   079.3596 deg
Mean anomaly:     280.7828 deg
Mean motion:   14.73616807 rev/day
Decay rate:       1.06e-06 rev/day^2
Epoch rev:           57036
Checksum:              316

Satellite: NOAA-16
Catalog number: 26536
Epoch time:      10056.52302422
Element set:     757
Inclination:      099.1771 deg
RA of node:       071.3292 deg
Eccentricity:    0.0009812
Arg of perigee:   292.1258 deg
Mean anomaly:     067.8891 deg
Mean motion:   14.12548084 rev/day
Decay rate:       2.12e-06 rev/day^2
Epoch rev:           48606
Checksum:              302

Satellite: NOAA-17
Catalog number: 27453
Epoch time:      10056.49778880
Element set:     763
Inclination:      098.4479 deg
RA of node:       111.3638 deg
Eccentricity:    0.0012747
Arg of perigee:   103.3579 deg
Mean anomaly:     256.9030 deg
Mean motion:   14.24133627 rev/day
Decay rate:       -5.0e-08 rev/day^2
Epoch rev:           39880
Checksum:              325

Satellite: NOAA-18
Catalog number: 28654
Epoch time:      10056.50111105
Element set:     249
Inclination:      098.9382 deg
RA of node:       003.1535 deg
Eccentricity:    0.0014698
Arg of perigee:   012.0714 deg
Mean anomaly:     348.0799 deg
Mean motion:   14.11329528 rev/day
Decay rate:      -1.49e-06 rev/day^2
Epoch rev:           24568
Checksum:              300

Satellite: NOAA-19
Catalog number: 33591
Epoch time:      10056.53572529
Element set:     450
Inclination:      098.7769 deg
RA of node:       001.0909 deg
Eccentricity:    0.0013357
Arg of perigee:   244.2778 deg
Mean anomaly:     115.6993 deg
Mean motion:   14.11030010 rev/day
Decay rate:       3.73e-06 rev/day^2
Epoch rev:            5416
Checksum:              292

/EX
SB KEPS @ AMSAT  $ORB10056.M
Orbital Elements  10056.MISC

HR AMSAT ORBITAL ELEMENTS FOR MANNED AND MISCELLANEOUS SATELLITES
FROM WA5QGD FORT WORTH,TX February 25, 2010
Send Subscribe/unsubscribe to KEPS at http://www.amsat.org/mailman/listinfo/kep
BID: ORB10056.M
TO ALL RADIO AMATEURS BT

Satellite: HUBBLE
Catalog number: 20580
Epoch time:      10055.73988967
Element set:     527
Inclination:      028.4693 deg
RA of node:       253.9101 deg
Eccentricity:    0.0003699
Arg of perigee:   086.8123 deg
Mean anomaly:     273.2854 deg
Mean motion:   15.00906071 rev/day
Decay rate:       6.18e-06 rev/day^2
Epoch rev:           88784
Checksum:              324

